STARLINK-35567

Last updated on Tue Dec 16 2025 00:02:05 GMT+0000 (Coordinated Universal Time)

1 66472U 25262S 25349.33335648 -.00004052 00000+0 -89788-4 0 9996 2 66472 43.0008 56.1833 0000873 255.3892 97.3668 15.40703914 6054
UTC large
Height (km)
Speed (km/s)
/
Latitude / Longitude
Inclination (degrees)
Orbital Period (minutes)
Azimuth
Elevation
Range (km)
Doppler Factor

Next 0 passes for location: London (51.5072 / 0.1276)

Sorry there are no passes over London.